Location: Armstrong Village
(14.3346°N, 120.9854°E)
Time: 09:21:48
(UTC+00:00)

GEOS 3 Rocket - Visible Passes

Search period start: 10 April 2026 00:00
Search period end: 20 April 2026 00:00
Orbit: 767 x 846 km, 115.0° (Epoch: 9 April)

Date Brightness Start Highest point End Pass type
(mag) Time Alt. Az. Time Alt. Az. Time Alt. Az.
10 Apr 6.4 20:52:47 10° E 20:55:06 13° ESE 20:57:25 10° SE visible
12 Apr 6.5 10:50:00 10° SW 10:51:36 11° WSW 10:53:14 10° W visible
13 Apr 6.4 21:16:15 10° E 21:18:50 14° ESE 21:21:23 10° SE visible
15 Apr 6.6 11:14:13 10° SW 11:15:20 11° WSW 11:16:27 10° WSW visible
16 Apr 5.8 10:46:24 10° S 10:50:33 25° WSW 10:54:47 10° WNW visible
19 Apr 5.8 11:10:13 10° SSW 11:14:16 24° WSW 11:18:24 10° WNW visible
